Back to catalog

THORAD AGENA D DEB

AliveSSO
NORAD 5696·DEBRIS·🇺🇸 United States

Launched Apr 8, 1970 from Vandenberg Space Force Base

Loading…

Next Passes (next 24 hours)

TLE

FreshSource: Space-Track

Epoch: Sep 14, 2026, 12:17 UTC

1 05696U 70025MB  26257.51245466  .00000264  00000-0  43229-3 0  9990
2 05696  99.5027 354.6549 0053461 304.1586 124.4684 13.56432771778552

Track THORAD AGENA D DEB in real time with AllMySat

Download on the App Store